When you browse on this site, cookies collect data to enhance your experience and personalize the content and advertising you see.
Visit our Privacy Policy to learn more. By continuing to use the site, you agree to this use of cookies and data.
EN

Hourly Weather Kamianki

Today, 10 August, Monday

Time Temperature Precipitation Wind Pressure Humidity
00:00 +19°C° 0 mm 2 mps 749 mmHg 89%
01:00 +20°C° 0 mm 1 mps 749 mmHg 91%
02:00 +20°C° 0 mm 1 mps 749 mmHg 92%
03:00 +18°C° 0 mm 2 mps 749 mmHg 92%
04:00 +18°C° 0 mm 2 mps 749 mmHg 93%
05:00 +18°C° 0 mm 2 mps 749 mmHg 94%
06:00 +19°C° 0 mm 2 mps 749 mmHg 90%
07:00 +20°C° 0 mm 2 mps 749 mmHg 86%
08:00 +21°C° 0 mm 2 mps 749 mmHg 82%
09:00 +24°C° 0 mm 3 mps 749 mmHg 75%
10:00 +25°C° 0 mm 3 mps 750 mmHg 68%
11:00 +27°C° 0 mm 3 mps 750 mmHg 61%
12:00 +27°C° 0 mm 2 mps 750 mmHg 57%
13:00 +28°C° 0 mm 2 mps 749 mmHg 54%
14:00 +29°C° 0 mm 2 mps 749 mmHg 50%
15:00 +29°C° 0.2 mm 2 mps 749 mmHg 52%
16:00 +28°C° 0.2 mm 2 mps 749 mmHg 54%
17:00 +28°C° 0.2 mm 2 mps 749 mmHg 56%
18:00 +26°C° 0.2 mm 2 mps 749 mmHg 64%
19:00 +24°C° 0.2 mm 2 mps 749 mmHg 72%
20:00 +22°C° 0.2 mm 3 mps 749 mmHg 79%
21:00 +21°C° 0 mm 2 mps 749 mmHg 82%
22:00 +20°C° 0 mm 2 mps 749 mmHg 85%
23:00 +19°C° 0 mm 2 mps 749 mmHg 87%

Tomorrow, 11 August, Tuesday

Time Temperature Precipitation Wind Pressure Humidity
00:00 +19°C° 0 mm 2 mps 749 mmHg 89%
01:00 +19°C° 0 mm 2 mps 750 mmHg 90%
02:00 +18°C° 0 mm 2 mps 750 mmHg 92%
03:00 +18°C° 0 mm 2 mps 750 mmHg 93%
04:00 +18°C° 0 mm 2 mps 750 mmHg 94%
05:00 +17°C° 0 mm 2 mps 750 mmHg 95%
06:00 +19°C° 0.1 mm 2 mps 750 mmHg 92%
07:00 +20°C° 0.1 mm 2 mps 750 mmHg 89%
08:00 +21°C° 0.1 mm 3 mps 750 mmHg 86%
09:00 +22°C° 0.2 mm 3 mps 750 mmHg 79%
10:00 +23°C° 0.2 mm 4 mps 750 mmHg 73%
11:00 +26°C° 0.2 mm 4 mps 750 mmHg 66%
12:00 +26°C° 0.1 mm 4 mps 750 mmHg 64%
13:00 +27°C° 0.1 mm 4 mps 750 mmHg 61%
14:00 +27°C° 0.1 mm 4 mps 750 mmHg 58%
15:00 +27°C° 0.2 mm 4 mps 750 mmHg 58%
16:00 +27°C° 0.2 mm 4 mps 750 mmHg 59%
17:00 +26°C° 0.2 mm 4 mps 750 mmHg 59%
18:00 +23°C° 0 mm 4 mps 750 mmHg 63%
19:00 +21°C° 0 mm 4 mps 750 mmHg 67%
20:00 +19°C° 0 mm 4 mps 750 mmHg 71%
21:00 +18°C° 0 mm 3 mps 751 mmHg 73%
22:00 +17°C° 0 mm 3 mps 751 mmHg 76%
23:00 +16°C° 0 mm 3 mps 751 mmHg 78%

Day after tomorrow, 12 August, Wednesday

Time Temperature Precipitation Wind Pressure Humidity
00:00 +14°C° 0 mm 3 mps 751 mmHg 81%
01:00 +14°C° 0 mm 3 mps 751 mmHg 84%
02:00 +14°C° 0 mm 2 mps 751 mmHg 87%
03:00 +14°C° 0 mm 2 mps 751 mmHg 89%
04:00 +13°C° 0 mm 2 mps 752 mmHg 90%
05:00 +13°C° 0 mm 2 mps 752 mmHg 92%
06:00 +15°C° 0 mm 2 mps 752 mmHg 86%
07:00 +16°C° 0 mm 2 mps 752 mmHg 80%
08:00 +18°C° 0 mm 2 mps 752 mmHg 74%
09:00 +19°C° 0 mm 3 mps 752 mmHg 67%
10:00 +20°C° 0 mm 3 mps 752 mmHg 61%
11:00 +22°C° 0 mm 3 mps 752 mmHg 55%
12:00 +22°C° 0 mm 3 mps 752 mmHg 53%
13:00 +24°C° 0 mm 3 mps 752 mmHg 52%
14:00 +24°C° 0 mm 3 mps 752 mmHg 50%
15:00 +24°C° 0 mm 3 mps 752 mmHg 51%
16:00 +24°C° 0 mm 3 mps 752 mmHg 52%
17:00 +24°C° 0 mm 3 mps 752 mmHg 53%
18:00 +21°C° 0 mm 3 mps 752 mmHg 59%
19:00 +19°C° 0 mm 3 mps 752 mmHg 66%
20:00 +17°C° 0 mm 3 mps 752 mmHg 72%
21:00 +16°C° 0 mm 3 mps 752 mmHg 75%
22:00 +15°C° 0 mm 2 mps 752 mmHg 78%
23:00 +14°C° 0 mm 2 mps 752 mmHg 80%

13 August, Thursday

Time Temperature Precipitation Wind Pressure Humidity
00:00 +14°C° 0 mm 2 mps 752 mmHg 83%
01:00 +13°C° 0 mm 2 mps 752 mmHg 86%
02:00 +13°C° 0 mm 2 mps 752 mmHg 89%
03:00 +12°C° 0 mm 2 mps 752 mmHg 90%
04:00 +12°C° 0 mm 2 mps 752 mmHg 91%
05:00 +12°C° 0 mm 2 mps 752 mmHg 92%
06:00 +13°C° 0 mm 2 mps 752 mmHg 86%
07:00 +14°C° 0 mm 2 mps 752 mmHg 80%
08:00 +16°C° 0 mm 2 mps 752 mmHg 74%
09:00 +17°C° 0 mm 2 mps 752 mmHg 69%
10:00 +18°C° 0 mm 3 mps 752 mmHg 63%
11:00 +19°C° 0 mm 3 mps 752 mmHg 58%
12:00 +20°C° 0 mm 3 mps 752 mmHg 55%
13:00 +21°C° 0 mm 3 mps 751 mmHg 52%
14:00 +21°C° 0 mm 3 mps 751 mmHg 49%
15:00 +21°C° 0 mm 3 mps 751 mmHg 50%
16:00 +21°C° 0 mm 3 mps 751 mmHg 50%
17:00 +21°C° 0 mm 3 mps 751 mmHg 51%
18:00 +19°C° 0 mm 3 mps 751 mmHg 58%
19:00 +18°C° 0 mm 3 mps 751 mmHg 64%
20:00 +16°C° 0 mm 3 mps 751 mmHg 71%
21:00 +14°C° 0 mm 3 mps 751 mmHg 73%
22:00 +13°C° 0 mm 3 mps 751 mmHg 75%
23:00 +14°C° 0 mm 2 mps 751 mmHg 77%

14 August, Friday

Time Temperature Precipitation Wind Pressure Humidity
00:00 +13°C° 0 mm 2 mps 751 mmHg 80%
01:00 +13°C° 0 mm 2 mps 751 mmHg 82%
02:00 +12°C° 0 mm 2 mps 751 mmHg 84%
03:00 +12°C° 0 mm 2 mps 751 mmHg 86%
04:00 +12°C° 0 mm 2 mps 751 mmHg 87%
05:00 +12°C° 0 mm 2 mps 751 mmHg 89%
06:00 +13°C° 0 mm 2 mps 751 mmHg 83%
07:00 +13°C° 0 mm 3 mps 751 mmHg 77%
08:00 +16°C° 0 mm 3 mps 751 mmHg 71%
09:00 +17°C° 0 mm 3 mps 751 mmHg 65%
10:00 +19°C° 0 mm 3 mps 751 mmHg 59%
11:00 +20°C° 0 mm 4 mps 751 mmHg 53%
12:00 +21°C° 0 mm 4 mps 751 mmHg 50%
13:00 +22°C° 0 mm 4 mps 751 mmHg 48%
14:00 +23°C° 0 mm 4 mps 751 mmHg 46%
15:00 +22°C° 0 mm 4 mps 750 mmHg 47%
16:00 +22°C° 0 mm 4 mps 750 mmHg 47%
17:00 +22°C° 0 mm 4 mps 750 mmHg 48%
18:00 +20°C° 0 mm 3 mps 750 mmHg 54%
19:00 +19°C° 0 mm 3 mps 750 mmHg 61%
20:00 +17°C° 0 mm 3 mps 750 mmHg 67%
21:00 +16°C° 0 mm 3 mps 750 mmHg 69%
22:00 +16°C° 0 mm 3 mps 750 mmHg 70%
23:00 +15°C° 0 mm 2 mps 750 mmHg 72%

15 August, Saturday

Time Temperature Precipitation Wind Pressure Humidity
00:00 +14°C° 0 mm 2 mps 750 mmHg 73%
01:00 +14°C° 0 mm 2 mps 750 mmHg 75%
02:00 +14°C° 0 mm 2 mps 750 mmHg 76%
03:00 +13°C° 0 mm 2 mps 750 mmHg 77%
04:00 +13°C° 0 mm 2 mps 750 mmHg 78%
05:00 +13°C° 0 mm 1 mps 750 mmHg 79%
06:00 +14°C° 0 mm 1 mps 750 mmHg 75%
07:00 +16°C° 0 mm 1 mps 750 mmHg 70%
08:00 +17°C° 0 mm 2 mps 750 mmHg 65%
09:00 +19°C° 0 mm 2 mps 750 mmHg 59%
10:00 +20°C° 0 mm 2 mps 750 mmHg 54%
11:00 +23°C° 0 mm 2 mps 750 mmHg 48%
12:00 +24°C° 0 mm 1 mps 750 mmHg 46%
13:00 +24°C° 0 mm 1 mps 750 mmHg 44%
14:00 +25°C° 0 mm 1 mps 750 mmHg 41%
15:00 +25°C° 0 mm 1 mps 749 mmHg 42%
16:00 +25°C° 0 mm 2 mps 749 mmHg 43%
17:00 +25°C° 0 mm 2 mps 749 mmHg 44%
18:00 +23°C° 0 mm 2 mps 749 mmHg 50%
19:00 +21°C° 0 mm 2 mps 749 mmHg 57%
20:00 +19°C° 0 mm 2 mps 749 mmHg 64%
21:00 +18°C° 0 mm 2 mps 749 mmHg 67%
22:00 +17°C° 0 mm 2 mps 749 mmHg 71%
23:00 +18°C° 0 mm 1 mps 750 mmHg 75%
Show more